DW3200 Weather Reports


time (UTC)temp
C
wind
direction
speed
KPH
gust
KPH
rain 1hr
cm
rain 24hr
cm
rain mn
cm
humidity
%
barometer
mb
20260507154512 13 300 0.0 0.0 0.00 0.00 0.00 66 1013.9
20260507153013 13 300 1.6 0.0 0.00 0.00 0.00 67 1013.9
20260507151558 12 300 3.2 0.0 0.00 0.00 0.00 72 1014.0
20260507150052 12 300 0.0 0.0 0.00 0.00 0.00 77 1014.0
20260507144534 11 300 0.0 0.0 0.00 0.00 0.00 80 1014.0
20260507143033 11 300 0.0 0.0 0.00 0.00 0.00 81 1013.8
20260507141515 11 300 0.0 0.0 0.00 0.00 0.00 84 1013.6
20260507140027 8 300 0.0 0.0 0.00 0.00 0.00 87 1013.5
20260507134501 7 300 0.0 0.0 0.00 0.00 0.00 87 1013.2
20260507133106 7 300 0.0 0.0 0.00 0.00 0.00 86 1013.1
20260507131620 7 300 0.0 0.0 0.00 0.00 0.00 86 1012.9
20260507130105 7 300 0.0 0.0 0.00 0.00 0.00 86 1012.8
20260507124601 6 300 0.0 0.0 0.00 0.00 0.00 86 1012.7
20260507123102 6 300 0.0 0.0 0.00 0.00 0.00 85 1012.6
20260507121554 6 300 0.0 0.0 0.00 0.00 0.00 85 1012.5
20260507120051 7 300 0.0 0.0 0.00 0.00 0.00 85 1012.5
20260507114533 7 300 0.0 0.0 0.00 0.00 0.00 85 1012.3
20260507113100 7 300 1.6 0.0 0.00 0.00 0.00 85 1012.3
20260507111515 7 300 0.0 0.0 0.00 0.00 0.00 87 1012.1
20260507110015 7 300 0.0 0.0 0.00 0.00 0.00 87 1012.2
20260507104606 7 300 0.0 0.0 0.00 0.00 0.00 85 1012.2
20260507103053 8 300 0.0 0.0 0.00 0.00 0.00 86 1012.3
20260507101534 8 300 0.0 0.0 0.00 0.00 0.00 86 1012.4
20260507100042 8 300 0.0 0.0 0.00 0.00 0.00 86 1012.3
20260507094513 8 300 1.6 0.0 0.00 0.00 0.00 86 1012.1
20260507093010 9 300 0.0 0.0 0.00 0.00 0.00 84 1011.9
20260507091550 10 300 0.0 0.0 0.00 0.00 0.00 85 1012.1
20260507090047 10 300 0.0 0.0 0.00 0.00 0.00 85 1011.8
20260507084545 10 300 0.0 0.0 0.00 0.00 0.00 84 1011.9
20260507083027 10 300 0.0 0.0 0.00 0.00 0.00 84 1011.8
20260507081507 11 300 0.0 0.0 0.00 0.00 0.00 84 1011.7
20260507080006 10 300 0.0 0.0 0.00 0.00 0.00 84 1011.7
20260507074548 10 300 0.0 0.0 0.00 0.00 0.00 84 1011.6
20260507073046 11 300 0.0 0.0 0.00 0.00 0.00 83 1011.6
20260507071529 11 300 0.0 0.0 0.00 0.00 0.00 83 1011.5
20260507070026 11 300 0.0 0.0 0.00 0.00 0.00 82 1011.6
20260507064506 11 300 0.0 0.0 0.00 0.00 0.00 81 1011.5
20260507063003 11 300 0.0 0.0 0.00 0.00 0.00 80 1011.4
20260507061543 12 300 0.0 0.0 0.00 0.00 0.00 78 1011.3
20260507060043 12 300 0.0 0.0 0.00 0.00 0.00 77 1011.1
20260507054530 13 300 0.0 0.0 0.00 0.00 0.00 76 1011.2
20260507053016 13 300 0.0 0.0 0.00 0.00 0.00 74 1011.2
20260507051606 13 300 0.0 0.0 0.00 0.00 0.00 73 1011.2
20260507050108 14 300 0.0 0.0 0.00 0.00 0.00 72 1011.1
20260507044546 14 300 0.0 0.0 0.00 0.00 0.00 70 1011.2
20260507043032 15 300 0.0 0.0 0.00 0.00 0.00 69 1011.1
20260507041513 15 300 0.0 0.0 0.00 0.00 0.00 67 1011.2
20260507040013 16 300 0.0 0.0 0.00 0.00 0.00 65 1011.2
20260507034551 16 300 0.0 0.0 0.00 0.00 0.00 63 1011.1
20260507033051 17 300 0.0 0.0 0.00 0.00 0.00 59 1011.0
20260507031534 18 300 0.0 0.0 0.00 0.00 0.00 55 1011.0
20260507030037 18 300 0.0 0.0 0.00 0.00 0.00 53 1010.9
20260507024517 18 300 0.0 0.0 0.00 0.00 0.00 51 1011.0
20260507023014 19 300 8.0 0.0 0.00 0.00 0.00 49 1011.0
20260507021623 19 296 8.0 0.0 0.00 0.00 0.00 48 1011.1
20260507020058 20 288 8.0 0.0 0.00 0.00 0.00 47 1010.8
20260507014559 20 291 8.0 0.0 0.00 0.00 0.00 45 1010.9
20260507013038 21 277 9.7 0.0 0.00 0.00 0.00 45 1010.8
20260507011540 21 284 9.7 0.0 0.00 0.00 0.00 44 1010.7
20260507010032 21 293 8.0 0.0 0.00 0.00 0.00 43 1010.7
20260507004522 21 284 8.0 0.0 0.00 0.00 0.00 41 1010.8
20260507003004 21 288 14.5 0.0 0.00 0.00 0.00 43 1010.9
20260507001502 21 288 14.5 0.0 0.00 0.00 0.00 44 1010.7
20260507000044 21 298 16.1 0.0 0.00 0.00 0.00 43 1010.6
20260506234552 22 280 16.1 0.0 0.00 0.00 0.00 44 1010.5
20260506233025 23 293 11.3 0.0 0.00 0.00 0.00 42 1010.6
20260506231527 23 284 9.7 0.0 0.00 0.00 0.00 42 1010.7
20260506230006 22 287 11.3 0.0 0.00 0.00 0.00 41 1011.0
20260506224506 22 291 9.7 0.0 0.00 0.00 0.00 41 1011.3
20260506223055 22 308 9.7 0.0 0.00 0.00 0.00 41 1011.5
20260506221547 22 281 6.4 0.0 0.00 0.00 0.00 41 1011.7
20260506220035 22 289 8.0 0.0 0.00 0.00 0.00 41 1011.9
20260506214532 22 277 8.0 0.0 0.00 0.00 0.00 38 1012.1
20260506213012 22 280 12.9 0.0 0.00 0.00 0.00 42 1012.1
20260506211511 22 274 8.0 0.0 0.00 0.00 0.00 41 1012.2
20260506204602 22 302 6.4 0.0 0.00 0.00 0.00 40 1012.4
20260506203057 22 278 6.4 0.0 0.00 0.00 0.00 39 1012.6
20260506201558 22 282 8.0 0.0 0.00 0.00 0.00 40 1012.7
20260506200109 21 279 8.0 0.0 0.00 0.00 0.00 40 1012.6
20260506194606 21 248 4.8 0.0 0.00 0.00 0.00 41 1012.7
20260506193050 21 285 9.7 0.0 0.00 0.00 0.00 42 1012.9
20260506191549 21 233 6.4 0.0 0.00 0.00 0.00 41 1013.0
20260506190030 21 288 6.4 0.0 0.00 0.00 0.00 43 1013.1
20260506184530 20 218 3.2 0.0 0.00 0.00 0.00 38 1013.2
20260506183011 20 283 4.8 0.0 0.00 0.00 0.00 42 1013.4
20260506181513 20 133 1.6 0.0 0.00 0.00 0.00 42 1013.5
20260506180051 20 143 3.2 0.0 0.00 0.00 0.00 42 1013.5
20260506174548 19 138 3.2 0.0 0.00 0.00 0.00 41 1013.6
20260506173029 18 131 1.6 0.0 0.00 0.00 0.00 41 1013.6
20260506171538 18 128 0.0 0.0 0.00 0.00 0.00 41 1013.6
20260506170008 18 102 1.6 0.0 0.00 0.00 0.00 42 1013.7
20260506164506 17 36 0.0 0.0 0.00 0.00 0.00 42 1013.9
20260506163051 17 36 1.6 0.0 0.00 0.00 0.00 43 1014.0
20260506161550 16 35 1.6 0.0 0.00 0.00 0.00 43 1014.2
20260506160034 16 304 0.0 0.0 0.00 0.00 0.00 46 1014.1